sat.trackr.live / text

‹ back to catalog

SHIYAN-31

NORAD 65945 · 2025-227A

PAYLOAD ACTIVE UNKNOWN

§ Identity

Operator
Country
PRC
Launch date
2025-10-13
Launch site
JSC
Launch vehicle
Mass (kg)
RCS (m²)

External: N2YO · Heavens-Above · Gunter

§ Orbital elements

Epoch: 2026-09-20T13:11:28.233312Z

Period
94.51 min
Inclination
80.0060°
Eccentricity
0.0009858
Mean motion
15.23636320 rev/d
Perigee alt
488.1 km
Apogee alt
501.7 km
Semi-major
6,873.0 km
B*
2.1059e-4
RAAN
7.6189°
Arg perigee
229.6513°
Mean anomaly
130.3855°
Rev number
5,207

§ Raw data

SHIYAN-311 65945U 25227A   26263.54963233  .00005068  00000+0  21059-3 0  99992 65945  80.0060   7.6189 0009858 229.6513 130.3855 15.23636320 52074

JSON: /api/v1/satellites/65945 · /tle

For live sub-satellite position, see the globe view (requires WebGL).

§ Visibility from observer

Set your observer location to see the next 7 days of passes ≥ 10°. The values pass through the URL so the page stays shareable.

No JS? Fill the form by hand. The geolocation button needs JavaScript.